Weather History for Vacaville, CA

Change the Weather History Date:

Monday, August 6, 2012

  Actual Average Record
Temperature  
Mean Temperature 74 °F -  
Max Temperature 95 °F 95 °F 106 °F (1966)
Min Temperature 55 °F 56 °F 48 °F (2002)
Cooling Degree Days 9    
Growing Degree Days 24 (Base 50)    
Moisture  
Dew Point 49 °F    
Average Humidity 45    
Maximum Humidity 77    
Minimum Humidity 21    
Precipitation  
Precipitation 0.00 in - - ()
Sea Level Pressure  
Sea Level Pressure 30.03 in    
Wind  
Wind Speed 6 mph (SW)    
Max Wind Speed 12 mph    
Max Gust Speed 16 mph    
Visibility 10 miles    
Events      
Averages and records for this station are not official NWS values.
T = Trace of Precipitation, MM = Missing Value Source: NWS Daily Summary

Daily Weather History Graph

Daily Weather History Graph

Search for Another Location

Airport:

Trip Planner

Search our weather history database for the weather conditions in past years. The results will help you decide how hot, cold, wet, or windy it might be!

Date:

Astronomy

Aug. 06, 2012 Rise Set
Actual Time 6:14 AM PDT 8:11 PM PDT
Civil Twilight 5:45 AM PDT 8:40 PM PDT
Nautical Twilight 5:10 AM PDT 9:15 PM PDT
Astronomical Twilight 4:32 AM PDT 9:53 PM PDT
Moon 10:28 PM PDT (8/6) 11:04 AM PDT (8/6)
Length of Visible Light 14h 54m
Length of Day
13h 56m
Waning Gibbous, 77% of the Moon is Illuminated
Aug 6
Waning Gibbous
Aug 9
Last Quarter
Aug 17
New
Aug 24
First Quarter
Aug 31
Full

Hourly Weather History & Observations

Time (PDT) Temp. Dew Point Humidity Pressure Visibility Wind Dir Wind Speed Gust Speed Precip Events Conditions
12:53 AM 64.0 °F 48.0 °F 56% 30.01 in 10.0 mi SW 4.6 mph - N/A   Clear
1:53 AM 61.0 °F 51.1 °F 70% 30.01 in 10.0 mi SW 11.5 mph - N/A   Clear
2:53 AM 61.0 °F 51.1 °F 70% 30.01 in 10.0 mi SW 9.2 mph - N/A   Clear
3:53 AM 60.1 °F 50.0 °F 69% 30.02 in 10.0 mi WSW 5.8 mph - N/A   Clear
4:53 AM 59.0 °F 50.0 °F 72% 30.02 in 10.0 mi SW 5.8 mph - N/A   Clear
5:53 AM 55.9 °F 48.9 °F 77% 30.04 in 10.0 mi West 4.6 mph - N/A   Clear
6:53 AM 57.0 °F 50.0 °F 77% 30.06 in 10.0 mi Calm Calm - N/A   Clear
7:53 AM 63.0 °F 51.1 °F 65% 30.06 in 10.0 mi WSW 4.6 mph - N/A   Clear
8:53 AM 66.9 °F 48.9 °F 52% 30.07 in 10.0 mi Calm Calm - N/A   Clear
9:53 AM 71.1 °F 52.0 °F 51% 30.09 in 10.0 mi Calm Calm - N/A   Clear
10:53 AM 75.9 °F 53.1 °F 45% 30.09 in 10.0 mi Variable 3.5 mph - N/A   Clear
11:53 AM 81.0 °F 51.1 °F 35% 30.09 in 10.0 mi SSE 4.6 mph - N/A   Clear
12:53 PM 84.0 °F 48.9 °F 29% 30.07 in 10.0 mi Variable 4.6 mph - N/A   Clear
1:53 PM 88.0 °F 45.0 °F 22% 30.06 in 10.0 mi SE 5.8 mph - N/A   Clear
2:53 PM 91.9 °F 52.0 °F 26% 30.04 in 10.0 mi Variable 6.9 mph 16.1 mph N/A   Clear
3:53 PM 93.9 °F 48.9 °F 21% 30.01 in 10.0 mi SSW 9.2 mph - N/A   Clear
4:53 PM 93.0 °F 48.9 °F 22% 30.00 in 10.0 mi SW 11.5 mph - N/A   Clear
5:53 PM 91.9 °F 48.0 °F 22% 29.99 in 10.0 mi SSW 10.4 mph - N/A   Clear
6:53 PM 89.1 °F 48.9 °F 25% 29.97 in 10.0 mi SSW 10.4 mph - N/A   Clear
7:53 PM 86.0 °F 43.0 °F 22% 29.97 in 10.0 mi SSW 5.8 mph - N/A   Clear
8:53 PM 79.0 °F 48.0 °F 34% 29.98 in 10.0 mi SW 5.8 mph - N/A   Clear
9:53 PM 73.0 °F 48.9 °F 42% 29.98 in 10.0 mi WSW 6.9 mph - N/A   Clear
10:53 PM 73.0 °F 48.0 °F 41% 29.98 in 10.0 mi SW 4.6 mph - N/A   Clear
11:53 PM 71.1 °F 48.0 °F 44% 29.98 in 10.0 mi Calm Calm - N/A   Clear